Location: Seattle
(47.6060°N, 122.3310°W)
Time: 15:26:55
(UTC-07:00)

ISS - Visible Passes

Search period start: 02 August 2015 00:00
Search period end: 12 August 2015 00:00
Orbit: 401 x 403 km, 51.6° (Epoch: 02 August)

Date Brightness Start Highest point End Pass type
(mag) Time Alt. Az. Time Alt. Az. Time Alt. Az.
02 Aug -0.4 01:29:05 10° WNW 01:29:14 11° WNW 01:29:14 11° WNW visible
02 Aug -2.8 21:22:53 10° SW 21:25:56 38° SE 21:29:01 10° ENE visible
02 Aug -2.6 22:59:06 10° W 23:02:19 54° NNW 23:05:32 10° ENE visible
03 Aug -1.5 00:36:00 10° WNW 00:38:10 31° NW 00:38:10 31° NW visible
03 Aug -3.2 22:05:59 10° WSW 22:09:14 75° NNW 22:12:31 10° ENE visible
03 Aug -1.9 23:42:52 10° WNW 23:45:58 38° N 23:46:57 30° NE visible
04 Aug -0.3 01:19:29 10° WNW 01:19:32 10° WNW 01:19:32 10° WNW visible
04 Aug -3.4 21:12:58 10° WSW 21:16:13 72° SSE 21:19:28 10° ENE visible
04 Aug -2.1 22:49:40 10° W 22:52:48 42° N 22:55:40 12° ENE visible
05 Aug -1.4 00:26:26 10° WNW 00:28:15 28° NW 00:28:15 28° NW visible
05 Aug -2.4 21:56:28 10° W 21:59:39 50° NNW 22:02:51 10° ENE visible
05 Aug -2.1 23:33:20 10° WNW 23:36:28 40° N 23:36:56 37° NNE visible
06 Aug -2.0 22:40:11 10° WNW 22:43:17 38° N 22:45:37 15° ENE visible
07 Aug -1.2 00:16:46 10° WNW 00:18:12 23° WNW 00:18:12 23° WNW visible
07 Aug -2.0 21:46:58 10° WNW 21:50:06 40° N 21:53:12 10° ENE visible
07 Aug -2.6 23:23:42 10° WNW 23:26:51 49° NNE 23:26:51 49° NNE visible
08 Aug -2.2 22:30:35 10° WNW 22:33:42 41° N 22:35:31 21° ENE visible
09 Aug -0.9 00:07:03 10° WNW 00:08:06 19° WNW 00:08:06 19° WNW visible
09 Aug -2.0 21:37:24 10° WNW 21:40:29 38° N 21:43:36 10° ENE visible
09 Aug -2.8 23:13:57 10° WNW 23:16:46 60° NW 23:16:46 60° NW visible
10 Aug -2.7 22:20:51 10° WNW 22:24:04 53° NNE 22:25:26 29° E visible
10 Aug -0.6 23:57:23 10° WNW 23:58:01 15° W 23:58:01 15° W visible
11 Aug -2.3 21:27:42 10° WNW 21:30:51 43° N 21:34:00 10° E visible
11 Aug -2.6 23:04:10 10° WNW 23:06:42 47° W 23:06:42 47° W visible
